ROMMA est une association bénévole à but non lucratif. Votre soutien est indispensable : ADHERER à ROMMA ou FAIRE un DON

Crêts du Salève - (74, Haute-Savoie)

Salève (1270 m)   Longitude: 6° 10' 28'' E   Latitude: 46° 7' 42'' N Station romma n°73
 

Détail journalier du     <<     >>

Température Precipitation Humidité Vent Dir Rafale Dir. rafale Ensol.
Heure (°C) (mm) (%) (km/h) (km/h) (min)
01:00 6.30807ENE13ENE0
02:00 6.20799SSO18S0
03:00 5.608313SO26OSO0
04:00 6.008020SO27SO0
05:00 6.407419OSO26OSO0
06:00 5.307126SO35SO0
07:00 6.205118SO34SSO0
08:00 7.004320SSO37SO0
09:00 8.802823SO42SSO0
10:00 7.703523SSO42SSO0
11:00 6.306531S58S0
12:00 6.607030S52S0
13:00 6.608533S56S0
14:00 8.709133S63S0
15:00 8.109732SO61SO0
16:00 8.609531SO47SO0
17:00 7.70.29728SO50SO0
18:00 6.909835SO52SO0
19:00 6.909534OSO47OSO0
20:00 6.909329SO44SO0
21:00 7.308727SO37OSO0
22:00 7.308528OSO44O0
23:00 6.708716OSO35OSO0
minuit 6.20.69318OSO29OSO0

Graphique du 04-10-2019

 

Serveur OMMA